• In Hungary
  • List of Countries
  • For 7 days
  • Water Temperature
  • Satellite Maps
  • Weather Map
  • News
  • Weather Widgets
  • user-avatar
    Login

    Hourly Weather Benalmadena

    Today, 17 January, Wednesday

    Time Temperature Precipitation Wind Pressure Humidity
    00:00 +10°C° 0 mm 2 mps 746 mmHg 64%
    01:00 +10°C° 0 mm 2 mps 746 mmHg 66%
    02:00 +10°C° 0 mm 2 mps 745 mmHg 68%
    03:00 +10°C° 0 mm 3 mps 745 mmHg 70%
    04:00 +9°C° 0 mm 2 mps 745 mmHg 71%
    05:00 +9°C° 0 mm 2 mps 745 mmHg 72%
    06:00 +9°C° 0 mm 2 mps 744 mmHg 75%
    07:00 +10°C° 0 mm 2 mps 744 mmHg 72%
    08:00 +10°C° 0 mm 2 mps 744 mmHg 70%
    09:00 +12°C° 0 mm 2 mps 744 mmHg 67%
    10:00 +14°C° 0 mm 2 mps 744 mmHg 61%
    11:00 +17°C° 0 mm 2 mps 744 mmHg 54%
    12:00 +19°C° 0 mm 2 mps 744 mmHg 48%
    13:00 +20°C° 0 mm 1 mps 744 mmHg 47%
    14:00 +21°C° 0 mm 1 mps 743 mmHg 47%
    15:00 +21°C° 0 mm 1 mps 743 mmHg 47%
    16:00 +19°C° 0 mm 1 mps 743 mmHg 54%
    17:00 +16°C° 0 mm 1 mps 743 mmHg 61%
    18:00 +14°C° 0 mm 2 mps 743 mmHg 68%
    19:00 +14°C° 0 mm 2 mps 743 mmHg 68%
    20:00 +13°C° 0 mm 2 mps 743 mmHg 69%
    21:00 +12°C° 0 mm 3 mps 743 mmHg 69%
    22:00 +12°C° 0 mm 3 mps 743 mmHg 69%
    23:00 +12°C° 0 mm 3 mps 743 mmHg 68%

    Tomorrow, 18 January, Thursday

    Time Temperature Precipitation Wind Pressure Humidity
    00:00 +11°C° 0 mm 3 mps 743 mmHg 68%
    01:00 +11°C° 0 mm 4 mps 743 mmHg 68%
    02:00 +11°C° 0 mm 4 mps 743 mmHg 69%
    03:00 +11°C° 0 mm 4 mps 743 mmHg 70%
    04:00 +10°C° 0 mm 4 mps 743 mmHg 71%
    05:00 +10°C° 0 mm 4 mps 743 mmHg 73%
    06:00 +10°C° 0 mm 4 mps 743 mmHg 74%
    07:00 +11°C° 0 mm 4 mps 743 mmHg 74%
    08:00 +11°C° 0 mm 4 mps 743 mmHg 73%
    09:00 +12°C° 0 mm 4 mps 743 mmHg 73%
    10:00 +13°C° 0 mm 4 mps 743 mmHg 66%
    11:00 +15°C° 0 mm 5 mps 743 mmHg 60%
    12:00 +17°C° 0 mm 5 mps 743 mmHg 53%
    13:00 +18°C° 0 mm 4 mps 742 mmHg 52%
    14:00 +18°C° 0 mm 4 mps 742 mmHg 51%
    15:00 +18°C° 0 mm 4 mps 741 mmHg 49%
    16:00 +16°C° 0 mm 3 mps 741 mmHg 56%
    17:00 +14°C° 0 mm 3 mps 741 mmHg 62%
    18:00 +12°C° 0 mm 3 mps 741 mmHg 69%
    19:00 +12°C° 0 mm 3 mps 741 mmHg 69%
    20:00 +12°C° 0 mm 3 mps 741 mmHg 68%
    21:00 +13°C° 0 mm 2 mps 741 mmHg 68%
    22:00 +13°C° 0 mm 2 mps 741 mmHg 68%
    23:00 +13°C° 0 mm 2 mps 741 mmHg 67%

    Day after tomorrow, 19 January, Friday

    Time Temperature Precipitation Wind Pressure Humidity
    00:00 +13°C° 0 mm 2 mps 741 mmHg 66%
    01:00 +12°C° 0 mm 1 mps 741 mmHg 66%
    02:00 +12°C° 0 mm 1 mps 741 mmHg 66%
    03:00 +12°C° 0 mm 1 mps 741 mmHg 66%
    04:00 +12°C° 0 mm 1 mps 741 mmHg 69%
    05:00 +12°C° 0 mm 1 mps 741 mmHg 71%
    06:00 +11°C° 0 mm 1 mps 741 mmHg 73%
    07:00 +12°C° 0 mm 1 mps 741 mmHg 73%
    08:00 +12°C° 0 mm 1 mps 741 mmHg 72%
    09:00 +13°C° 0 mm 1 mps 742 mmHg 72%
    10:00 +14°C° 0 mm 1 mps 742 mmHg 66%
    11:00 +16°C° 0 mm 1 mps 742 mmHg 61%
    12:00 +17°C° 0 mm 2 mps 742 mmHg 56%
    13:00 +17°C° 0 mm 2 mps 742 mmHg 56%
    14:00 +17°C° 0 mm 2 mps 742 mmHg 56%
    15:00 +18°C° 0 mm 3 mps 742 mmHg 56%
    16:00 +16°C° 0 mm 3 mps 742 mmHg 62%
    17:00 +15°C° 0 mm 2 mps 743 mmHg 69%
    18:00 +13°C° 0 mm 2 mps 743 mmHg 76%
    19:00 +13°C° 0 mm 2 mps 744 mmHg 75%
    20:00 +12°C° 0 mm 2 mps 744 mmHg 73%
    21:00 +12°C° 0 mm 2 mps 745 mmHg 72%
    22:00 +12°C° 0 mm 2 mps 745 mmHg 71%
    23:00 +10°C° 0 mm 2 mps 745 mmHg 70%

    20 January, Saturday

    Time Temperature Precipitation Wind Pressure Humidity
    00:00 +10°C° 0 mm 2 mps 745 mmHg 69%
    01:00 +10°C° 0 mm 2 mps 745 mmHg 70%
    02:00 +10°C° 0 mm 2 mps 745 mmHg 71%
    03:00 +10°C° 0 mm 2 mps 745 mmHg 72%
    04:00 +9°C° 0 mm 2 mps 745 mmHg 72%
    05:00 +9°C° 0 mm 2 mps 745 mmHg 72%
    06:00 +9°C° 0 mm 2 mps 746 mmHg 72%
    07:00 +10°C° 0 mm 2 mps 746 mmHg 68%
    08:00 +12°C° 0 mm 2 mps 747 mmHg 65%
    09:00 +13°C° 0 mm 2 mps 747 mmHg 62%
    10:00 +15°C° 0 mm 2 mps 747 mmHg 55%
    11:00 +17°C° 0 mm 2 mps 747 mmHg 48%
    12:00 +18°C° 0 mm 2 mps 747 mmHg 42%
    13:00 +19°C° 0 mm 3 mps 747 mmHg 42%
    14:00 +19°C° 0 mm 3 mps 747 mmHg 42%
    15:00 +19°C° 0 mm 3 mps 746 mmHg 42%
    16:00 +17°C° 0 mm 3 mps 746 mmHg 49%
    17:00 +14°C° 0 mm 3 mps 746 mmHg 55%
    18:00 +13°C° 0 mm 3 mps 747 mmHg 62%
    19:00 +12°C° 0 mm 3 mps 747 mmHg 61%
    20:00 +12°C° 0 mm 4 mps 747 mmHg 60%
    21:00 +11°C° 0 mm 4 mps 748 mmHg 59%
    22:00 +11°C° 0 mm 3 mps 748 mmHg 61%
    23:00 +11°C° 0 mm 3 mps 748 mmHg 63%

    21 January, Sunday

    Time Temperature Precipitation Wind Pressure Humidity
    00:00 +11°C° 0 mm 3 mps 748 mmHg 64%
    01:00 +10°C° 0 mm 3 mps 748 mmHg 65%
    02:00 +10°C° 0 mm 3 mps 748 mmHg 66%
    03:00 +10°C° 0 mm 2 mps 747 mmHg 66%
    04:00 +10°C° 0 mm 2 mps 748 mmHg 65%
    05:00 +10°C° 0 mm 2 mps 748 mmHg 64%
    06:00 +10°C° 0 mm 2 mps 748 mmHg 62%
    07:00 +12°C° 0 mm 2 mps 748 mmHg 61%
    08:00 +13°C° 0 mm 2 mps 748 mmHg 60%
    09:00 +14°C° 0 mm 2 mps 749 mmHg 58%
    10:00 +16°C° 0 mm 2 mps 749 mmHg 53%
    11:00 +18°C° 0 mm 2 mps 749 mmHg 49%
    12:00 +20°C° 0 mm 2 mps 749 mmHg 44%
    13:00 +21°C° 0 mm 3 mps 748 mmHg 44%
    14:00 +21°C° 0 mm 3 mps 748 mmHg 45%
    15:00 +21°C° 0 mm 3 mps 747 mmHg 45%
    16:00 +20°C° 0 mm 3 mps 748 mmHg 52%
    17:00 +18°C° 0 mm 2 mps 748 mmHg 59%
    18:00 +16°C° 0 mm 2 mps 748 mmHg 66%
    19:00 +16°C° 0 mm 2 mps 748 mmHg 66%
    20:00 +15°C° 0 mm 2 mps 748 mmHg 67%
    21:00 +15°C° 0 mm 2 mps 749 mmHg 68%
    22:00 +14°C° 0 mm 1 mps 749 mmHg 68%
    23:00 +14°C° 0 mm 1 mps 749 mmHg 67%

    22 January, Monday

    Time Temperature Precipitation Wind Pressure Humidity
    00:00 +14°C° 0 mm 1 mps 749 mmHg 66%
    01:00 +14°C° 0 mm 1 mps 749 mmHg 65%
    02:00 +14°C° 0 mm 1 mps 748 mmHg 65%
    03:00 +13°C° 0 mm 1 mps 748 mmHg 64%
    04:00 +13°C° 0 mm 1 mps 748 mmHg 64%
    05:00 +13°C° 0 mm 1 mps 748 mmHg 63%
    06:00 +13°C° 0 mm 1 mps 748 mmHg 62%
    07:00 +14°C° 0 mm 1 mps 748 mmHg 61%
    08:00 +15°C° 0 mm 1 mps 749 mmHg 60%
    09:00 +16°C° 0 mm 1 mps 749 mmHg 59%
    10:00 +19°C° 0 mm 1 mps 749 mmHg 53%
    11:00 +21°C° 0 mm 1 mps 749 mmHg 48%
    12:00 +22°C° 0 mm 1 mps 749 mmHg 42%
    13:00 +22°C° 0 mm 1 mps 748 mmHg 42%
    14:00 +23°C° 0 mm 1 mps 748 mmHg 42%
    15:00 +23°C° 0 mm 1 mps 747 mmHg 42%
    16:00 +21°C° 0 mm 1 mps 748 mmHg 48%
    17:00 +19°C° 0 mm 1 mps 748 mmHg 55%
    18:00 +16°C° 0 mm 1 mps 748 mmHg 61%
    19:00 +16°C° 0 mm 1 mps 748 mmHg 63%
    20:00 +15°C° 0 mm 1 mps 748 mmHg 64%
    21:00 +15°C° 0 mm 1 mps 748 mmHg 65%
    22:00 +15°C° 0 mm 1 mps 748 mmHg 65%
    23:00 +14°C° 0 mm 1 mps 748 mmHg 65%
    Show more